This is the latest recevied weather packets stored in our database for station/object KI5MKI. If no packets are shown the sender has not sent any weather packets the latest 10 day(s).
| Time | Temp. | Humidity | Pressure | Rain* | Wind** | Luminosity | Snow |
|---|---|---|---|---|---|---|---|
| 1777755314 | 23.89° C | 33% | 1020 hPa | 0 mm | - | 733 W/m² | - |
| 1777755012 | 23.89° C | 37% | 1020.2 hPa | 0 mm | - | 748 W/m² | - |
| 1777754708 | 24.44° C | 39% | 1020.1 hPa | 0 mm | - | 762 W/m² | - |
| 1777754407 | 23.89° C | 40% | 1020.2 hPa | 0 mm | - | 779 W/m² | - |
| 1777754103 | 23.89° C | 36% | 1020.3 hPa | 0 mm | - | 791 W/m² | - |
| 1777753800 | 24.44° C | 36% | 1020.5 hPa | 0 mm | - | 809 W/m² | - |
| 1777753496 | 23.89° C | 34% | 1020.4 hPa | 0 mm | - | 818 W/m² | - |
| 1777753195 | 23.89° C | 36% | 1020.5 hPa | 0 mm | - | 827 W/m² | - |
| 1777752890 | 23.89° C | 38% | 1020.5 hPa | 0 mm | - | 839 W/m² | - |
| 1777752587 | 23.89° C | 34% | 1020.6 hPa | 0 mm | - | 847 W/m² | - |
| 1777752283 | 23.33° C | 38% | 1021 hPa | 0 mm | - | 860 W/m² | - |
| 1777751981 | 23.33° C | 36% | 1020.9 hPa | 0 mm | - | 867 W/m² | - |
| 1777751678 | 23.33° C | 34% | 1020.8 hPa | 0 mm | - | 877 W/m² | - |
| 1777751374 | 23.33° C | 35% | 1020.9 hPa | 0 mm | - | 879 W/m² | - |
| 1777751071 | 22.78° C | 37% | 1021.1 hPa | 0 mm | - | 885 W/m² | - |
| 1777750766 | 22.78° C | 38% | 1021.1 hPa | 0 mm | - | 897 W/m² | - |
| 1777750464 | 23.33° C | 35% | 1021 hPa | 0 mm | - | 903 W/m² | - |
| 1777750159 | 23.33° C | 34% | 1021.2 hPa | 0 mm | - | 908 W/m² | - |
| 1777749857 | 22.78° C | 37% | 1021.2 hPa | 0 mm | - | 916 W/m² | - |
| 1777749554 | 23.33° C | 37% | 1021.1 hPa | 0 mm | - | 927 W/m² | - |
| 1777749251 | 23.33° C | 38% | 1021.3 hPa | 0 mm | - | 928 W/m² | - |
| 1777748949 | 23.33° C | 39% | 1021.5 hPa | 0 mm | - | 928 W/m² | - |
| 1777748646 | 22.78° C | 40% | 1021.4 hPa | 0 mm | - | 930 W/m² | - |
| 1777748342 | 22.78° C | 39% | 1021.3 hPa | 0 mm | - | 934 W/m² | - |
| 1777748037 | 22.78° C | 37% | 1021.4 hPa | 0 mm | - | 935 W/m² | - |
* Rain latest hour (hover to see other rain measurements)
** Current wind speed in m/s (hover to see current wind gust speed)